UAL2009 KIAH-MRLB

Flight info

Callsign UAL2009
Flight time 3h 0m
Altitude 37000
Route FLYZA5 MUSYL L207 IPSEV DCT VIVEP DCT DASMO DCT TALAG DCT OVADO OVADO1S
Aircraft B739/M-SDE2E3FGHIRWXY/LB1

Departure

Time 2026-04-14 21:39
Airport George Bush Intercontinental Airport (KIAH)

Arrival

Time 2026-04-15 00:39
Airport Daniel Oduber Quirós International Airport (MRLB)
Time Latitude Longitude Altitude Speed Heading
2026-04-14 21:08 29.98532 -95.33696 106 ft 0 kts 360°
2026-04-14 21:28 29.98530 -95.33696 106 ft 2 kts 360°
2026-04-14 21:28 29.98504 -95.33696 106 ft 4 kts 359°
2026-04-14 21:29 29.98477 -95.33695 105 ft 4 kts 359°
2026-04-14 21:29 29.98450 -95.33694 105 ft 4 kts 358°
2026-04-14 21:29 29.98423 -95.33693 106 ft 4 kts 357°
2026-04-14 21:29 29.98396 -95.33691 105 ft 4 kts 356°
2026-04-14 21:30 29.98369 -95.33689 105 ft 4 kts 353°
2026-04-14 21:30 29.98342 -95.33684 105 ft 4 kts 345°
2026-04-14 21:30 29.98319 -95.33673 106 ft 4 kts 309°
2026-04-14 21:30 29.98314 -95.33664 106 ft 0 kts 270°
2026-04-14 21:34 29.98313 -95.33697 106 ft 7 kts 270°
2026-04-14 21:34 29.98316 -95.33764 106 ft 15 kts 270°
2026-04-14 21:34 29.98315 -95.33933 106 ft 22 kts 269°
2026-04-14 21:34 29.98363 -95.34093 106 ft 22 kts 296°
2026-04-14 21:35 29.98373 -95.34263 106 ft 21 kts 269°
2026-04-14 21:35 29.98365 -95.34429 106 ft 21 kts 248°
2026-04-14 21:35 29.98321 -95.34579 106 ft 20 kts 276°
2026-04-14 21:35 29.98323 -95.34734 106 ft 19 kts 270°
2026-04-14 21:36 29.98324 -95.34887 106 ft 19 kts 270°
2026-04-14 21:36 29.98323 -95.35035 106 ft 18 kts 270°
2026-04-14 21:36 29.98344 -95.35174 106 ft 19 kts 312°
2026-04-14 21:36 29.98480 -95.35263 106 ft 25 kts 332°
2026-04-14 21:37 29.98633 -95.35357 106 ft 24 kts 332°
2026-04-14 21:37 29.98777 -95.35446 106 ft 23 kts 332°
2026-04-14 21:37 29.98884 -95.35562 106 ft 22 kts 261°
2026-04-14 21:37 29.98835 -95.35663 106 ft 0 kts 240°
2026-04-14 21:38 29.98824 -95.35685 105 ft 8 kts 240°
2026-04-14 21:38 29.98746 -95.35754 108 ft 19 kts 169°
2026-04-14 21:38 29.98622 -95.35685 107 ft 27 kts 152°
2026-04-14 21:38 29.98254 -95.35458 106 ft 92 kts 152°
2026-04-14 21:39 29.97529 -95.35013 105 ft 142 kts 152°
2026-04-14 21:39 29.96539 -95.34407 230 ft 173 kts 152°
2026-04-14 21:39 29.95460 -95.33761 765 ft 177 kts 151°
2026-04-14 21:39 29.94415 -95.33080 1498 ft 167 kts 143°
2026-04-14 21:40 29.93778 -95.31964 2077 ft 175 kts 118°
2026-04-14 21:40 29.93093 -95.30716 2268 ft 195 kts 144°
2026-04-14 21:40 29.91855 -95.30043 2507 ft 209 kts 161°
2026-04-14 21:40 29.90466 -95.29416 2907 ft 219 kts 159°
2026-04-14 21:41 29.88980 -95.28731 3105 ft 240 kts 159°
2026-04-14 21:41 29.87405 -95.27999 3724 ft 245 kts 159°
2026-04-14 21:41 29.85816 -95.27260 4430 ft 249 kts 159°
2026-04-14 21:41 29.84188 -95.26502 5103 ft 254 kts 159°
2026-04-14 21:42 29.82536 -95.25730 5777 ft 258 kts 160°
2026-04-14 21:42 29.80855 -95.24945 6408 ft 263 kts 159°
2026-04-14 21:42 29.79164 -95.24154 7032 ft 265 kts 159°
2026-04-14 21:42 29.77464 -95.23359 7775 ft 266 kts 158°
2026-04-14 21:43 29.75738 -95.22553 8398 ft 269 kts 158°
2026-04-14 21:43 29.73979 -95.21730 8953 ft 277 kts 158°
2026-04-14 21:43 29.72196 -95.20897 9717 ft 275 kts 158°
2026-04-14 21:43 29.70415 -95.20065 10341 ft 279 kts 157°
2026-04-14 21:44 29.69195 -95.19495 10480 ft 293 kts 158°
2026-04-14 21:44 29.67236 -95.18579 10630 ft 314 kts 158°
2026-04-14 21:44 29.65150 -95.17604 10824 ft 333 kts 158°
2026-04-14 21:44 29.62955 -95.16579 11080 ft 347 kts 158°
2026-04-14 21:45 29.60714 -95.15535 11688 ft 349 kts 158°
2026-04-14 21:45 29.57721 -95.14140 12381 ft 355 kts 158°
2026-04-14 21:45 29.55413 -95.13064 12885 ft 361 kts 158°
2026-04-14 21:45 29.53828 -95.12326 13194 ft 366 kts 158°
2026-04-14 21:46 29.51453 -95.11221 13710 ft 371 kts 159°
2026-04-14 21:46 29.49075 -95.10115 14173 ft 376 kts 159°
2026-04-14 21:46 29.46654 -95.08988 14768 ft 376 kts 159°
2026-04-14 21:46 29.44215 -95.07853 15320 ft 378 kts 160°
2026-04-14 21:47 29.41768 -95.06717 15856 ft 381 kts 160°
2026-04-14 21:47 29.39306 -95.05575 16413 ft 383 kts 160°
2026-04-14 21:47 29.36829 -95.04428 16935 ft 386 kts 160°
2026-04-14 21:47 29.34328 -95.03268 17413 ft 389 kts 160°
2026-04-14 21:48 29.31815 -95.02101 17948 ft 391 kts 160°
2026-04-14 21:48 29.29284 -95.00928 18433 ft 394 kts 160°
2026-04-14 21:48 29.26762 -94.99760 18819 ft 398 kts 160°
2026-04-14 21:48 29.24187 -94.98568 19263 ft 400 kts 161°
2026-04-14 21:49 29.21597 -94.97370 19681 ft 403 kts 160°
2026-04-14 21:49 29.18985 -94.96162 20081 ft 406 kts 160°
2026-04-14 21:49 29.16355 -94.94946 20480 ft 410 kts 160°
2026-04-14 21:49 29.13694 -94.93718 20836 ft 414 kts 160°
2026-04-14 21:50 29.11015 -94.92481 21219 ft 417 kts 160°
2026-04-14 21:50 29.08317 -94.91236 21600 ft 420 kts 160°
2026-04-14 21:50 29.05600 -94.89983 21975 ft 422 kts 160°
2026-04-14 21:50 29.02903 -94.88740 22336 ft 425 kts 160°
2026-04-14 21:51 29.00155 -94.87474 22703 ft 427 kts 161°
2026-04-14 21:51 28.97390 -94.86201 23056 ft 430 kts 161°
2026-04-14 21:51 28.94605 -94.84920 23407 ft 433 kts 161°
2026-04-14 21:51 28.91803 -94.83632 23734 ft 435 kts 161°
2026-04-14 21:52 28.88990 -94.82339 24040 ft 437 kts 161°
2026-04-14 21:52 28.86161 -94.81040 24357 ft 438 kts 161°
2026-04-14 21:52 28.83327 -94.79739 24664 ft 440 kts 161°
2026-04-14 21:52 28.80516 -94.78449 24973 ft 442 kts 161°
2026-04-14 21:53 28.77659 -94.77139 25288 ft 443 kts 161°
2026-04-14 21:53 28.74792 -94.75825 25613 ft 445 kts 161°
2026-04-14 21:53 28.71916 -94.74508 25929 ft 446 kts 161°
2026-04-14 21:53 28.69028 -94.73187 26239 ft 448 kts 161°
2026-04-14 21:54 28.66128 -94.71860 26543 ft 450 kts 161°
2026-04-14 21:54 28.63218 -94.70530 26845 ft 452 kts 161°
2026-04-14 21:54 28.60296 -94.69196 27148 ft 453 kts 161°
2026-04-14 21:54 28.57363 -94.67857 27439 ft 455 kts 161°
2026-04-14 21:55 28.54456 -94.66531 27708 ft 457 kts 161°
2026-04-14 21:55 28.51499 -94.65182 27993 ft 459 kts 161°
2026-04-14 21:55 28.48531 -94.63830 28277 ft 460 kts 161°
2026-04-14 21:55 28.45551 -94.62472 28559 ft 462 kts 161°
2026-04-14 21:56 28.42563 -94.61113 28834 ft 464 kts 161°
2026-04-14 21:56 28.39564 -94.59748 29106 ft 465 kts 162°
2026-04-14 21:56 28.36551 -94.58379 29373 ft 467 kts 162°
2026-04-14 21:56 28.33530 -94.57006 29637 ft 469 kts 162°
2026-04-14 21:57 28.30533 -94.55647 29876 ft 471 kts 162°
2026-04-14 21:57 28.27496 -94.54268 30249 ft 469 kts 161°
2026-04-14 21:57 28.24473 -94.52895 30655 ft 466 kts 162°
2026-04-14 21:57 28.21471 -94.51532 31060 ft 464 kts 162°
2026-04-14 21:58 28.18480 -94.50177 31421 ft 462 kts 162°
2026-04-14 21:58 28.15495 -94.48825 31755 ft 462 kts 162°
2026-04-14 21:58 28.12515 -94.47477 32127 ft 460 kts 162°
2026-04-14 21:58 28.09546 -94.46135 32516 ft 458 kts 162°
2026-04-14 21:59 28.06589 -94.44799 32884 ft 457 kts 162°
2026-04-14 21:59 28.03641 -94.43468 33219 ft 456 kts 162°
2026-04-14 21:59 28.00737 -94.42158 33553 ft 455 kts 163°
2026-04-14 21:59 27.97801 -94.40833 33890 ft 453 kts 162°
2026-04-14 22:00 27.94876 -94.39515 34219 ft 452 kts 163°
2026-04-14 22:00 27.91957 -94.38200 34449 ft 452 kts 163°
2026-04-14 22:00 27.89030 -94.36883 34638 ft 453 kts 163°
2026-04-14 22:00 27.86101 -94.35566 34840 ft 454 kts 163°
2026-04-14 22:01 27.83166 -94.34246 35076 ft 453 kts 163°
2026-04-14 22:01 27.80267 -94.32944 35069 ft 457 kts 163°
2026-04-14 22:01 27.74378 -94.30298 35079 ft 454 kts 163°
2026-04-14 22:02 27.68530 -94.27673 35082 ft 451 kts 163°
2026-04-14 22:02 27.62713 -94.25066 35090 ft 449 kts 163°
2026-04-14 22:03 27.56916 -94.22472 35088 ft 448 kts 163°
2026-04-14 22:03 27.51154 -94.19898 35102 ft 451 kts 163°
2026-04-14 22:04 27.45269 -94.17274 35302 ft 457 kts 163°
2026-04-14 22:04 27.42309 -94.15953 35536 ft 457 kts 163°
2026-04-14 22:04 27.39363 -94.14638 35794 ft 455 kts 163°
2026-04-14 22:05 27.36420 -94.13325 36017 ft 455 kts 163°
2026-04-14 22:05 27.33475 -94.12014 36168 ft 456 kts 163°
2026-04-14 22:05 27.30523 -94.10700 36367 ft 456 kts 163°
2026-04-14 22:05 27.27573 -94.09387 36572 ft 456 kts 163°
2026-04-14 22:06 27.24666 -94.08094 36758 ft 456 kts 163°
2026-04-14 22:06 27.21719 -94.06785 36921 ft 456 kts 163°
2026-04-14 22:06 27.18772 -94.05476 37075 ft 455 kts 163°
2026-04-14 22:06 27.15816 -94.04165 37074 ft 458 kts 163°
2026-04-14 22:07 27.09894 -94.01539 37078 ft 457 kts 163°
2026-04-14 22:07 27.03991 -93.98923 37090 ft 455 kts 163°
2026-04-14 22:08 26.98141 -93.96334 37090 ft 455 kts 163°
2026-04-14 22:08 26.92260 -93.93735 37089 ft 454 kts 163°
2026-04-14 22:09 26.86380 -93.91139 37088 ft 454 kts 163°
2026-04-14 22:09 26.80507 -93.88549 37075 ft 454 kts 163°
2026-04-14 22:10 26.74626 -93.85959 37086 ft 454 kts 163°
2026-04-14 22:10 26.68775 -93.83385 37088 ft 455 kts 163°
2026-04-14 22:11 26.62869 -93.80788 37089 ft 457 kts 163°
2026-04-14 22:11 26.56947 -93.78188 37086 ft 458 kts 163°
2026-04-14 22:12 26.51127 -93.75207 37082 ft 463 kts 156°
2026-04-14 22:12 26.45532 -93.71703 37078 ft 465 kts 154°
2026-04-14 22:13 26.39900 -93.68134 37085 ft 466 kts 155°
2026-04-14 22:13 26.34237 -93.64609 37079 ft 466 kts 155°
2026-04-14 22:14 26.28593 -93.61137 37074 ft 467 kts 155°
2026-04-14 22:14 26.22905 -93.57651 37081 ft 466 kts 155°
2026-04-14 22:15 26.17220 -93.54170 37074 ft 466 kts 155°
2026-04-14 22:15 26.11542 -93.50696 37081 ft 466 kts 155°
2026-04-14 22:16 26.05901 -93.47248 37082 ft 466 kts 155°
2026-04-14 22:16 26.00224 -93.43782 37082 ft 465 kts 155°
2026-04-14 22:17 25.94549 -93.40320 37075 ft 465 kts 155°
2026-04-14 22:17 25.88876 -93.36863 37060 ft 465 kts 155°
2026-04-14 22:18 25.83202 -93.33410 37082 ft 465 kts 155°
2026-04-14 22:18 25.77561 -93.29981 37088 ft 466 kts 155°
2026-04-14 22:19 25.69024 -93.24798 37080 ft 467 kts 155°
2026-04-14 22:20 25.63318 -93.21340 37080 ft 468 kts 155°
2026-04-14 22:20 25.57600 -93.17877 37076 ft 469 kts 155°
2026-04-14 22:21 25.51915 -93.14437 37085 ft 469 kts 155°
2026-04-14 22:21 25.46183 -93.10974 37080 ft 470 kts 155°
2026-04-14 22:22 25.40444 -93.07509 37083 ft 470 kts 155°
2026-04-14 22:22 25.34702 -93.04047 37066 ft 470 kts 155°
2026-04-14 22:23 25.28997 -93.00611 37071 ft 470 kts 155°
2026-04-14 22:23 25.23254 -92.97155 37077 ft 470 kts 155°
2026-04-14 22:24 25.17511 -92.93704 37072 ft 470 kts 155°
2026-04-14 22:24 25.11768 -92.90256 37076 ft 470 kts 155°
2026-04-14 22:25 25.06061 -92.86833 37075 ft 470 kts 155°
2026-04-14 22:25 25.00319 -92.83393 37078 ft 470 kts 155°
2026-04-14 22:26 24.94574 -92.79955 37071 ft 469 kts 155°
2026-04-14 22:26 24.88836 -92.76525 37074 ft 469 kts 156°
2026-04-14 22:27 24.83097 -92.73098 37073 ft 469 kts 156°
2026-04-14 22:27 24.77398 -92.69698 37078 ft 469 kts 156°
2026-04-14 22:28 24.71663 -92.66280 37070 ft 469 kts 156°
2026-04-14 22:28 24.65928 -92.62866 37075 ft 469 kts 156°
2026-04-14 22:29 24.60194 -92.59456 37070 ft 469 kts 156°
2026-04-14 22:29 24.54455 -92.56046 37075 ft 469 kts 156°
2026-04-14 22:30 24.48760 -92.52659 37077 ft 469 kts 155°
2026-04-14 22:30 24.43067 -92.49141 37077 ft 470 kts 154°
2026-04-14 22:31 24.37390 -92.45580 37077 ft 470 kts 154°
2026-04-14 22:31 24.31745 -92.42053 37072 ft 470 kts 154°
2026-04-14 22:32 24.26059 -92.38518 37078 ft 470 kts 154°
2026-04-14 22:32 24.20364 -92.34986 37069 ft 470 kts 154°
2026-04-14 22:33 24.14665 -92.31457 37070 ft 471 kts 154°
2026-04-14 22:33 24.08965 -92.27929 37073 ft 471 kts 154°
2026-04-14 22:34 24.03298 -92.24426 37057 ft 471 kts 155°
2026-04-14 22:34 23.97592 -92.20902 37066 ft 471 kts 155°
2026-04-14 22:35 23.91885 -92.17381 37069 ft 471 kts 155°
2026-04-14 22:35 23.86172 -92.13860 37070 ft 472 kts 155°
2026-04-14 22:36 23.80498 -92.10366 37068 ft 472 kts 155°
2026-04-14 22:36 23.74776 -92.06847 37069 ft 472 kts 155°
2026-04-14 22:37 23.69055 -92.03331 37057 ft 472 kts 155°
2026-04-14 22:37 23.63333 -91.99818 37066 ft 472 kts 155°
2026-04-14 22:38 23.57651 -91.96334 37063 ft 472 kts 155°
2026-04-14 22:38 23.51926 -91.92827 37057 ft 472 kts 155°
2026-04-14 22:39 23.46200 -91.89323 37058 ft 472 kts 155°
2026-04-14 22:39 23.40474 -91.85822 37053 ft 472 kts 155°
2026-04-14 22:40 23.34787 -91.82348 37059 ft 472 kts 155°
2026-04-14 22:40 23.29062 -91.78856 37060 ft 472 kts 155°
2026-04-14 22:41 23.23332 -91.75363 37060 ft 472 kts 155°
2026-04-14 22:41 23.17603 -91.71874 37060 ft 472 kts 155°
2026-04-14 22:42 23.11908 -91.68410 37060 ft 472 kts 155°
2026-04-14 22:42 23.06170 -91.64922 37053 ft 472 kts 155°
2026-04-14 22:43 23.00435 -91.61440 37060 ft 472 kts 155°
2026-04-14 22:43 22.94694 -91.57958 37057 ft 473 kts 155°
2026-04-14 22:44 22.88991 -91.54502 37059 ft 473 kts 155°
2026-04-14 22:44 22.83245 -91.51024 37044 ft 473 kts 155°
2026-04-14 22:45 22.77498 -91.47549 37046 ft 473 kts 155°
2026-04-14 22:45 22.71749 -91.44075 37051 ft 473 kts 155°
2026-04-14 22:46 22.65997 -91.40603 37047 ft 473 kts 155°
2026-04-14 22:46 22.60283 -91.37157 37053 ft 474 kts 155°
2026-04-14 22:47 22.54522 -91.33687 37049 ft 474 kts 155°
2026-04-14 22:47 22.48761 -91.30219 37045 ft 474 kts 155°
2026-04-14 22:48 22.42999 -91.26755 37042 ft 474 kts 154°
2026-04-14 22:48 22.37273 -91.23315 37047 ft 474 kts 155°
2026-04-14 22:49 22.31510 -91.19857 37041 ft 474 kts 155°
2026-04-14 22:49 22.25746 -91.16400 37040 ft 474 kts 155°
2026-04-14 22:50 22.19982 -91.12948 37033 ft 474 kts 154°
2026-04-14 22:50 22.14259 -91.09523 37036 ft 473 kts 154°
2026-04-14 22:51 22.08499 -91.06079 37037 ft 473 kts 154°
2026-04-14 22:51 22.02741 -91.02640 37031 ft 473 kts 154°
2026-04-14 22:52 21.96983 -90.99204 37031 ft 473 kts 154°
2026-04-14 22:52 21.91268 -90.95797 37028 ft 473 kts 154°
2026-04-14 22:53 21.85518 -90.92372 37030 ft 472 kts 154°
2026-04-14 22:53 21.79766 -90.88949 37026 ft 472 kts 154°
2026-04-14 22:54 21.74013 -90.85528 37019 ft 472 kts 154°
2026-04-14 22:54 21.68304 -90.82137 37022 ft 472 kts 154°
2026-04-14 22:55 21.62553 -90.78724 37024 ft 472 kts 154°
2026-04-14 22:55 21.56799 -90.75312 37018 ft 472 kts 154°
2026-04-14 22:56 21.51042 -90.71902 37016 ft 473 kts 154°
2026-04-14 22:56 21.45323 -90.68517 37016 ft 473 kts 154°
2026-04-14 22:57 21.39560 -90.65110 37014 ft 473 kts 154°
2026-04-14 22:57 21.33792 -90.61702 37013 ft 473 kts 154°
2026-04-14 22:58 21.28020 -90.58294 37018 ft 474 kts 154°
2026-04-14 22:58 21.22247 -90.54889 37012 ft 474 kts 154°
2026-04-14 22:59 21.16507 -90.51506 37015 ft 474 kts 154°
2026-04-14 22:59 21.10700 -90.48167 37007 ft 473 kts 155°
2026-04-14 23:00 21.04871 -90.44879 37014 ft 473 kts 155°
2026-04-14 23:00 20.99049 -90.41593 37014 ft 473 kts 155°
2026-04-14 23:01 20.93269 -90.38322 37012 ft 473 kts 155°
2026-04-14 23:01 20.87455 -90.35029 37010 ft 473 kts 155°
2026-04-14 23:02 20.81640 -90.31738 37001 ft 473 kts 155°
2026-04-14 23:02 20.75867 -90.28473 36999 ft 472 kts 155°
2026-04-14 23:03 20.70057 -90.25191 36999 ft 472 kts 155°
2026-04-14 23:03 20.64248 -90.21912 36996 ft 472 kts 155°
2026-04-14 23:04 20.58439 -90.18637 36990 ft 472 kts 155°
2026-04-14 23:04 20.52666 -90.15384 36990 ft 472 kts 155°
2026-04-14 23:05 20.46851 -90.12111 36986 ft 473 kts 155°
2026-04-14 23:05 20.41028 -90.08836 36994 ft 473 kts 155°
2026-04-14 23:06 20.35196 -90.05558 36996 ft 474 kts 155°
2026-04-14 23:06 20.29902 -90.02586 36991 ft 475 kts 155°
2026-04-14 23:07 20.24043 -89.99299 36995 ft 477 kts 155°
2026-04-14 23:07 20.18167 -89.96005 36980 ft 477 kts 155°
2026-04-14 23:08 20.12287 -89.92711 36971 ft 478 kts 155°
2026-04-14 23:08 20.06444 -89.89441 36985 ft 478 kts 155°
2026-04-14 23:09 20.00557 -89.86150 36983 ft 478 kts 155°
2026-04-14 23:09 19.94670 -89.82861 36977 ft 478 kts 155°
2026-04-14 23:10 19.88786 -89.79577 36976 ft 478 kts 155°
2026-04-14 23:10 19.82944 -89.76318 36975 ft 477 kts 155°
2026-04-14 23:11 19.77063 -89.73041 36964 ft 477 kts 155°
2026-04-14 23:11 19.71187 -89.69770 36976 ft 477 kts 155°
2026-04-14 23:12 19.65308 -89.66499 36977 ft 477 kts 155°
2026-04-14 23:12 19.59466 -89.63253 36978 ft 477 kts 155°
2026-04-14 23:13 19.53579 -89.59983 36981 ft 478 kts 155°
2026-04-14 23:13 19.47691 -89.56715 36972 ft 478 kts 155°
2026-04-14 23:14 19.41792 -89.53445 36971 ft 479 kts 155°
2026-04-14 23:14 19.35887 -89.50173 36983 ft 479 kts 155°
2026-04-14 23:15 19.30008 -89.46919 36981 ft 480 kts 155°
2026-04-14 23:15 19.24313 -89.43769 36976 ft 481 kts 155°
2026-04-14 23:16 19.18401 -89.40502 36971 ft 482 kts 155°
2026-04-14 23:16 19.12420 -89.37199 36993 ft 483 kts 156°
2026-04-14 23:17 19.07109 -89.34268 36983 ft 483 kts 156°
2026-04-14 23:17 19.01147 -89.30980 36979 ft 484 kts 156°
2026-04-14 23:18 18.92280 -89.26097 36989 ft 484 kts 156°
2026-04-14 23:18 18.86769 -89.23064 36987 ft 484 kts 156°
2026-04-14 23:19 18.80799 -89.19782 36990 ft 484 kts 156°
2026-04-14 23:19 18.74822 -89.16498 36976 ft 484 kts 156°
2026-04-14 23:20 18.68887 -89.13239 36990 ft 484 kts 156°
2026-04-14 23:20 18.62919 -89.09966 36990 ft 483 kts 156°
2026-04-14 23:21 18.56960 -89.06700 36991 ft 483 kts 156°
2026-04-14 23:21 18.50983 -89.03427 36989 ft 483 kts 156°
2026-04-14 23:22 18.45027 -89.00167 36999 ft 483 kts 156°
2026-04-14 23:22 18.39111 -88.96932 36989 ft 483 kts 156°
2026-04-14 23:23 18.33133 -88.93666 36999 ft 483 kts 156°
2026-04-14 23:23 18.27166 -88.90408 36996 ft 484 kts 156°
2026-04-14 23:24 18.21185 -88.87145 36998 ft 484 kts 156°
2026-04-14 23:24 18.15344 -88.83961 37003 ft 485 kts 156°
2026-04-14 23:25 18.09342 -88.80690 36999 ft 485 kts 156°
2026-04-14 23:25 18.03366 -88.77437 37004 ft 485 kts 156°
2026-04-14 23:26 17.97346 -88.74424 37008 ft 483 kts 160°
2026-04-14 23:26 17.91187 -88.71629 37000 ft 483 kts 161°
2026-04-14 23:27 17.85002 -88.68836 36996 ft 483 kts 160°
2026-04-14 23:27 17.78897 -88.66043 36996 ft 483 kts 160°
2026-04-14 23:28 17.72870 -88.63265 36984 ft 482 kts 160°
2026-04-14 23:28 17.66736 -88.60435 36994 ft 482 kts 160°
2026-04-14 23:29 17.60887 -88.57739 36991 ft 482 kts 160°
2026-04-14 23:29 17.54726 -88.54904 37002 ft 482 kts 160°
2026-04-14 23:30 17.48671 -88.52119 37001 ft 483 kts 160°
2026-04-14 23:30 17.42657 -88.49355 37008 ft 483 kts 160°
2026-04-14 23:31 17.36479 -88.46518 36998 ft 483 kts 160°
2026-04-14 23:31 17.30471 -88.43761 36999 ft 483 kts 160°
2026-04-14 23:32 17.24273 -88.40919 36999 ft 483 kts 160°
2026-04-14 23:32 17.18182 -88.38128 37011 ft 482 kts 160°
2026-04-14 23:33 17.12023 -88.35308 37007 ft 482 kts 160°
2026-04-14 23:33 17.05968 -88.32538 37008 ft 482 kts 160°
2026-04-14 23:34 16.99868 -88.29749 37004 ft 482 kts 160°
2026-04-14 23:34 16.93840 -88.26994 37010 ft 482 kts 160°
2026-04-14 23:35 16.87686 -88.24185 37000 ft 482 kts 160°
2026-04-14 23:35 16.81537 -88.21380 37001 ft 482 kts 160°
2026-04-14 23:36 16.75434 -88.18597 36989 ft 483 kts 160°
2026-04-14 23:36 16.69352 -88.15826 36992 ft 483 kts 160°
2026-04-14 23:37 16.63187 -88.13019 36991 ft 483 kts 160°
2026-04-14 23:37 16.57070 -88.10236 36990 ft 484 kts 160°
2026-04-14 23:38 16.50939 -88.07448 36998 ft 483 kts 160°
2026-04-14 23:38 16.46141 -88.05268 36983 ft 483 kts 160°
2026-04-14 23:39 16.39972 -88.02467 36982 ft 482 kts 160°
2026-04-14 23:39 16.33868 -87.99696 36990 ft 481 kts 160°
2026-04-14 23:40 16.27732 -87.96914 36993 ft 480 kts 160°
2026-04-14 23:40 16.21628 -87.94148 36998 ft 479 kts 160°
2026-04-14 23:41 16.15522 -87.91383 36998 ft 479 kts 160°
2026-04-14 23:41 16.09458 -87.88639 37003 ft 478 kts 160°
2026-04-14 23:42 16.03351 -87.85877 36993 ft 478 kts 160°
2026-04-14 23:42 15.97245 -87.83118 36987 ft 479 kts 160°
2026-04-14 23:43 15.91145 -87.80363 36989 ft 479 kts 160°
2026-04-14 23:43 15.85071 -87.77622 36993 ft 479 kts 160°
2026-04-14 23:44 15.78951 -87.74862 36992 ft 480 kts 160°
2026-04-14 23:44 15.72923 -87.72144 36986 ft 480 kts 160°
2026-04-14 23:45 15.66850 -87.69409 36998 ft 480 kts 160°
2026-04-14 23:45 15.60719 -87.66649 36980 ft 480 kts 160°
2026-04-14 23:46 15.54651 -87.63918 36992 ft 478 kts 160°
2026-04-14 23:46 15.48551 -87.61176 37005 ft 477 kts 160°
2026-04-14 23:47 15.42463 -87.58440 37004 ft 476 kts 160°
2026-04-14 23:47 15.36450 -87.55740 37009 ft 473 kts 160°
2026-04-14 23:48 15.30690 -87.53156 37011 ft 473 kts 160°
2026-04-14 23:48 15.24658 -87.50451 36992 ft 471 kts 160°
2026-04-14 23:49 15.18653 -87.47759 37020 ft 470 kts 160°
2026-04-14 23:49 15.12655 -87.45074 37016 ft 471 kts 160°
2026-04-14 23:50 15.06665 -87.42394 37017 ft 472 kts 160°
2026-04-14 23:50 15.00645 -87.39702 37027 ft 472 kts 160°
2026-04-14 23:51 14.94585 -87.36991 37022 ft 475 kts 160°
2026-04-14 23:51 14.88514 -87.34283 37022 ft 475 kts 160°
2026-04-14 23:52 14.82472 -87.31584 37015 ft 477 kts 160°
2026-04-14 23:52 14.76390 -87.28866 37016 ft 476 kts 160°
2026-04-14 23:53 14.70312 -87.26154 37018 ft 475 kts 160°
2026-04-14 23:53 14.64242 -87.23448 37021 ft 474 kts 160°
2026-04-14 23:54 14.58833 -87.21039 37032 ft 473 kts 160°
2026-04-14 23:54 14.52825 -87.18370 37028 ft 472 kts 160°
2026-04-14 23:55 14.46778 -87.15670 37037 ft 471 kts 160°
2026-04-14 23:55 14.40762 -87.13020 37040 ft 469 kts 161°
2026-04-14 23:56 14.34772 -87.10487 37053 ft 468 kts 161°
2026-04-14 23:56 14.28728 -87.07951 37055 ft 468 kts 161°
2026-04-14 23:57 14.25712 -87.06680 37047 ft 468 kts 161°
2026-04-14 23:57 14.25268 -87.06493 37050 ft 468 kts 161°
2026-04-14 23:58 14.20860 -87.04628 37066 ft 469 kts 161°
2026-04-14 23:59 14.14852 -87.01991 37044 ft 469 kts 161°
2026-04-14 23:59 14.08799 -86.99471 37050 ft 469 kts 162°
2026-04-15 00:00 14.02805 -86.96985 37021 ft 469 kts 161°
2026-04-15 00:00 13.96794 -86.94460 36989 ft 470 kts 161°
2026-04-15 00:01 13.90744 -86.91908 36956 ft 470 kts 161°
2026-04-15 00:01 13.84685 -86.89349 36937 ft 470 kts 161°
2026-04-15 00:02 13.78635 -86.86795 36943 ft 470 kts 161°
2026-04-15 00:02 13.72625 -86.84261 36922 ft 470 kts 161°
2026-04-15 00:03 13.66576 -86.81713 36925 ft 470 kts 161°
2026-04-15 00:03 13.60521 -86.79164 36911 ft 470 kts 161°
2026-04-15 00:04 13.54461 -86.76615 36911 ft 471 kts 161°
2026-04-15 00:04 13.48441 -86.74083 36918 ft 470 kts 161°
2026-04-15 00:05 13.42380 -86.71536 36891 ft 470 kts 161°
2026-04-15 00:05 13.36322 -86.68993 36901 ft 471 kts 161°
2026-04-15 00:06 13.30252 -86.66445 36884 ft 471 kts 161°
2026-04-15 00:06 13.24222 -86.63914 36912 ft 471 kts 161°
2026-04-15 00:07 13.18160 -86.61372 36890 ft 472 kts 161°
2026-04-15 00:07 13.12081 -86.58822 36890 ft 472 kts 161°
2026-04-15 00:08 13.06001 -86.56273 36891 ft 472 kts 161°
2026-04-15 00:08 12.99963 -86.53745 36860 ft 472 kts 161°
2026-04-15 00:09 12.93886 -86.51203 36862 ft 471 kts 161°
2026-04-15 00:09 12.87816 -86.48664 36873 ft 471 kts 161°
2026-04-15 00:10 12.81748 -86.46128 36870 ft 471 kts 161°
2026-04-15 00:10 12.75729 -86.43612 36871 ft 470 kts 161°
2026-04-15 00:11 12.69671 -86.41083 36851 ft 470 kts 161°
2026-04-15 00:11 12.63617 -86.38555 36855 ft 470 kts 161°
2026-04-15 00:12 12.57559 -86.36028 36842 ft 470 kts 161°
2026-04-15 00:12 12.51546 -86.33521 36854 ft 470 kts 161°
2026-04-15 00:13 12.45490 -86.30997 36847 ft 470 kts 161°
2026-04-15 00:13 12.39421 -86.28470 36548 ft 476 kts 161°
2026-04-15 00:14 12.36329 -86.27185 35924 ft 480 kts 161°
2026-04-15 00:14 12.33240 -86.25900 35218 ft 480 kts 160°
2026-04-15 00:14 12.30137 -86.24610 34448 ft 483 kts 160°
2026-04-15 00:14 12.27033 -86.23318 33889 ft 480 kts 161°
2026-04-15 00:15 12.23986 -86.22049 33222 ft 478 kts 161°
2026-04-15 00:15 12.20924 -86.20774 32673 ft 473 kts 160°
2026-04-15 00:15 12.17886 -86.19508 32126 ft 469 kts 161°
2026-04-15 00:15 12.14877 -86.18257 31592 ft 465 kts 160°
2026-04-15 00:16 12.11895 -86.17020 31059 ft 461 kts 161°
2026-04-15 00:16 12.08937 -86.15790 30529 ft 457 kts 161°
2026-04-15 00:16 12.06006 -86.14572 30001 ft 453 kts 161°
2026-04-15 00:16 12.03094 -86.13363 29400 ft 450 kts 160°
2026-04-15 00:17 12.00245 -86.12179 28849 ft 445 kts 159°
2026-04-15 00:17 11.97388 -86.10993 28319 ft 441 kts 159°
2026-04-15 00:17 11.94562 -86.09822 27800 ft 437 kts 158°
2026-04-15 00:17 11.91758 -86.08659 27285 ft 433 kts 159°
2026-04-15 00:18 11.86223 -86.06365 26283 ft 426 kts 158°
2026-04-15 00:18 11.83485 -86.05229 25781 ft 423 kts 158°
2026-04-15 00:18 11.80766 -86.04103 25277 ft 421 kts 157°
2026-04-15 00:19 11.78061 -86.02981 24760 ft 419 kts 157°
2026-04-15 00:19 11.75400 -86.01878 24268 ft 418 kts 156°
2026-04-15 00:19 11.72709 -86.00763 23761 ft 417 kts 156°
2026-04-15 00:19 11.70027 -85.99652 23233 ft 415 kts 155°
2026-04-15 00:20 11.67358 -85.98546 22686 ft 413 kts 156°
2026-04-15 00:20 11.64705 -85.97448 22182 ft 409 kts 156°
2026-04-15 00:20 11.62079 -85.96360 21687 ft 406 kts 156°
2026-04-15 00:20 11.59475 -85.95281 21212 ft 402 kts 156°
2026-04-15 00:21 11.56892 -85.94212 20731 ft 399 kts 155°
2026-04-15 00:21 11.54329 -85.93151 20264 ft 396 kts 156°
2026-04-15 00:21 11.51820 -85.92113 19802 ft 393 kts 155°
2026-04-15 00:21 11.49294 -85.91081 19363 ft 389 kts 157°
2026-04-15 00:22 11.46784 -85.90069 18914 ft 386 kts 157°
2026-04-15 00:22 11.44289 -85.89067 18432 ft 385 kts 158°
2026-04-15 00:22 11.41808 -85.88068 17933 ft 383 kts 156°
2026-04-15 00:22 11.39340 -85.87074 17422 ft 380 kts 156°
2026-04-15 00:23 11.36893 -85.86087 16946 ft 377 kts 157°
2026-04-15 00:23 11.34498 -85.85120 16478 ft 374 kts 156°
2026-04-15 00:23 11.32092 -85.84148 16042 ft 370 kts 157°
2026-04-15 00:23 11.29718 -85.83189 15677 ft 365 kts 157°
2026-04-15 00:24 11.27365 -85.82239 15244 ft 363 kts 157°
2026-04-15 00:24 11.25028 -85.81295 14803 ft 361 kts 158°
2026-04-15 00:24 11.22699 -85.80357 14355 ft 359 kts 158°
2026-04-15 00:24 11.20334 -85.79617 13917 ft 353 kts 174°
2026-04-15 00:25 11.17916 -85.79563 13599 ft 344 kts 181°
2026-04-15 00:25 11.15545 -85.79598 13215 ft 337 kts 181°
2026-04-15 00:25 11.13247 -85.79625 12880 ft 332 kts 180°
2026-04-15 00:25 11.10944 -85.79636 12551 ft 331 kts 180°
2026-04-15 00:26 11.08640 -85.79634 12240 ft 331 kts 179°
2026-04-15 00:26 11.06333 -85.79628 11917 ft 332 kts 179°
2026-04-15 00:26 11.04025 -85.79617 11595 ft 331 kts 178°
2026-04-15 00:26 11.01725 -85.79567 11266 ft 330 kts 177°
2026-04-15 00:27 10.99439 -85.79502 10944 ft 328 kts 176°
2026-04-15 00:27 10.97220 -85.79436 10621 ft 321 kts 176°
2026-04-15 00:27 10.95025 -85.79372 10308 ft 313 kts 177°
2026-04-15 00:27 10.95022 -85.79372 10307 ft 313 kts 177°
2026-04-15 00:29 10.93724 -85.79335 10122 ft 309 kts 177°
2026-04-15 00:29 10.91605 -85.79277 9941 ft 297 kts 177°
2026-04-15 00:29 10.89588 -85.79223 9649 ft 290 kts 176°
2026-04-15 00:29 10.87607 -85.79170 9281 ft 287 kts 174°
2026-04-15 00:30 10.85610 -85.79115 8936 ft 285 kts 175°
2026-04-15 00:30 10.83639 -85.79064 8666 ft 282 kts 174°
2026-04-15 00:30 10.81682 -85.79011 8382 ft 280 kts 176°
2026-04-15 00:30 10.79745 -85.78961 8099 ft 277 kts 176°
2026-04-15 00:31 10.77823 -85.78909 7832 ft 275 kts 175°
2026-04-15 00:31 10.75916 -85.78859 7571 ft 273 kts 174°
2026-04-15 00:31 10.74023 -85.78808 7294 ft 271 kts 174°
2026-04-15 00:31 10.72168 -85.78758 7040 ft 269 kts 173°
2026-04-15 00:32 10.70302 -85.78709 6770 ft 268 kts 174°
2026-04-15 00:32 10.68446 -85.78659 6506 ft 265 kts 173°
2026-04-15 00:32 10.66623 -85.78622 6242 ft 259 kts 176°
2026-04-15 00:32 10.64822 -85.78610 5987 ft 259 kts 175°
2026-04-15 00:33 10.63014 -85.78598 5721 ft 261 kts 173°
2026-04-15 00:33 10.61196 -85.78585 5458 ft 262 kts 173°
2026-04-15 00:33 10.59378 -85.78543 5201 ft 259 kts 166°
2026-04-15 00:33 10.57784 -85.77886 4861 ft 241 kts 134°
2026-04-15 00:34 10.56718 -85.76662 4556 ft 230 kts 118°
2026-04-15 00:34 10.55917 -85.75269 4205 ft 228 kts 114°
2026-04-15 00:34 10.55158 -85.73858 3882 ft 228 kts 114°
2026-04-15 00:34 10.54400 -85.72463 3578 ft 222 kts 114°
2026-04-15 00:35 10.53679 -85.71108 3337 ft 214 kts 108°
2026-04-15 00:35 10.53549 -85.69665 3177 ft 210 kts 75°
2026-04-15 00:35 10.53980 -85.68239 2866 ft 210 kts 73°
2026-04-15 00:35 10.54424 -85.66892 2640 ft 193 kts 67°
2026-04-15 00:36 10.54761 -85.66085 2470 ft 186 kts 64°
2026-04-15 00:36 10.55382 -85.64551 2160 ft 163 kts 68°
2026-04-15 00:36 10.55773 -85.63561 1944 ft 141 kts 68°
2026-04-15 00:36 10.56162 -85.62692 1836 ft 136 kts 63°
2026-04-15 00:37 10.56607 -85.61832 1657 ft 137 kts 64°
2026-04-15 00:37 10.57018 -85.60964 1354 ft 135 kts 63°
2026-04-15 00:37 10.57273 -85.60403 1243 ft 129 kts 66°
2026-04-15 00:37 10.57548 -85.59573 1170 ft 122 kts 70°
2026-04-15 00:38 10.57809 -85.58791 961 ft 128 kts 72°
2026-04-15 00:38 10.58122 -85.57922 737 ft 131 kts 73°
2026-04-15 00:38 10.58429 -85.57028 599 ft 138 kts 71°
2026-04-15 00:38 10.58853 -85.55842 409 ft 127 kts 72°
2026-04-15 00:39 10.59123 -85.55065 280 ft 103 kts 73°
2026-04-15 00:39 10.59229 -85.54692 277 ft 62 kts 75°
2026-04-15 00:39 10.59283 -85.54481 278 ft 0 kts 76°